Hourly Data Report for October 28, 2016

All times are specified in Local Standard Time (LST). Add 1 hour to adjust for Daylight Saving Time where and when it is observed.

EUREKA CLIMATE
NUNAVUT

79°59'21.000" N
85°56'02.000" W
10.00 m
2401199
71613
NEK

Download Data

Hourly Data (October 2016)
Hourly Data Report for October 28, 2016
Temp Definition
°C
Dew Point Temp Definition
°C
Rel Hum Definition
%
Wind Dir Definition
10's deg

Wind Spd Definition
km/h
Visibility Definition
km
Stn Press Definition
kPa
Hmdx Definition


Wind Chill Definition


Weather Definition


TIME
00:00 -29.6 -32.5 76 11 5   102.89   -35 LegendNANA
01:00 -29.6 -32.4 77 8 2   102.91   -32 LegendNANA
02:00 -29.4 -32.3 77 13 3   102.94   -33 LegendNANA
03:00 -29.7 -32.6 76 11 10   102.94   -39 LegendNANA
04:00 -29.0 -31.8 76 11 11   102.96   -38 LegendNANA
05:00 -28.4 -31.2 77 10 6   102.97   -35 LegendNANA
06:00 -28.0 -30.8 77 12 7   102.97   -35 LegendNANA
07:00 -27.5 -30.4 77 11 10   102.96   -36 LegendNANA
08:00 -26.6 -29.3 78 9 3   102.94   -30 LegendNANA
09:00 -25.4 -27.9 79 17 2   102.93   -27 LegendNANA
10:00 -24.5 -27.2 78 11 6   102.90   -30 LegendNANA
11:00 -25.3 -28.0 78 12 8   102.90   -32 LegendNANA
12:00 -25.7 -28.3 79 9 5   102.89   -31 LegendNANA
13:00 -26.7 -29.4 78 10 6   102.88   -33 LegendNANA
14:00 -26.9 -29.6 78 9 9   102.88   -35 LegendNANA
15:00 -26.1 -28.7 78 9 6   102.90   -32 LegendNANA
16:00 -25.4 -27.9 79 10 7   102.89   -32 LegendNANA
17:00 -23.7 -26.4 79 9 4   102.89   -28 LegendNANA
18:00 -23.4 -25.8 81 7 7   102.88   -30 LegendNANA
19:00 -24.0 -26.5 80 13 9   102.90   -31 LegendNANA
20:00 -24.0 -26.5 80 8 6   102.92   -30 LegendNANA
21:00 -25.7 -28.3 79 2 12   102.90   -35 LegendNANA
22:00 -25.5 -28.3 78 4 3   102.90   -29 LegendNANA
23:00 -25.9 -28.3 80 10 12   102.93   -35 LegendNANA

Notes on Data Quality.

Legend

  • E = Estimated
  • M = Missing
  • NA = Not Available
  • ‡ = Partner data that is not subject to review by the National Climate Archives
Date modified: